MyTimes logo

TIMES

Webb Imagery

9/02/2013
Cowes Classic
500m Swim / 4.0km Run - Local Residents

(Click on competitor name to view personalised results)

Name
Race #
Category
Time
(h:mm:ss)
Avg Speed
km/hr
OAll
Place
Cat
Place
BATES Oliver#844Local Junior Team0:20:08 13.4 11
PLANT Luke#291Local Senior Male0:21:08 12.8 21
ROWE Mark#283Local Senior Male0:21:15 12.7 32
MANTEIT Michael#23Local Junior Male0:21:33 12.5 41
MC DONALD Angus#850Local Team0:21:41 12.5 51
DALLINGER Andrew#294Local Senior Male0:21:45 12.4 63
RYAN Declan#825Local Junior Team0:22:13 12.2 72
KAYE-HELMOT Georgia#845Local Team0:22:52 11.8 82
BUTT Chloe#244Local Senior Female0:22:53 11.8 91
ROLLAND Thierry#60Local 40-49 Male0:22:57 11.8 101
FLEISNER Rob#85Local 50+ Male0:23:03 11.7 111
TANDEFF Geordie#828Local Team0:23:18 11.6 123
TILLEY Justin#298Local Senior Male0:23:26 11.5 134
RIORDAN Scott#829Local Team0:24:03 11.2 144
OXLEY Thomas#253Local Senior Male0:24:21 11.1 155
LANDELLS Kara#239Local Senior Female0:24:48 10.9 162
EVANS Brad#82Local 40-49 Male0:24:51 10.9 172
TURNER Bridget#818Local Junior Team0:24:52 10.9 183
YUSKO Bill#93Local 50+ Male0:25:30 10.6 192
DRENNAN Amanda#840Local Team0:25:32 10.6 205
BOND Marcus#223Local Senior Male0:25:50 10.5 216
CROWE Susie#842Local Team0:25:53 10.4 226
HARRIS Kris#258Local Senior Male0:26:00 10.4 237
HETEBRGEG Andre#254Local Senior Male0:26:16 10.3 248
WATSON Russell#43Local 40-49 Male0:26:16 10.3 253
TURNER Georgia#18Local Junior Female0:26:16 10.3 261
TURNER Peter#17Local 50+ Male0:26:28 10.2 273
EDWARDS Molly#16Local Junior Female0:26:32 10.2 282
MATTHEWS Jack#268Local Senior Male0:26:36 10.2 299
CUMBERS Linda#853Local Team0:26:39 10.1 307
MACKENZIE Chris#843Local Team0:26:45 10.1 318
TAYLOR Shane#259Local Senior Male0:26:46 10.1 3210
HERBERT Duncan#79Local 40-49 Male0:26:55 10 334
VIRTUE Geoff#838Local Team0:27:43 9.7 349
HUGHES Hilary#270Local Senior Female0:27:47 9.7 353
HOLUB Brittany#52Local Junior Female0:27:52 9.7 363
GOLDIE Tony#67Local 40-49 Male0:28:11 9.6 375
RIELLY Debbie#5Local 40-49 Female0:28:17 9.5 381
JOHNSTONE Chris#94Local 40-49 Male0:28:26 9.5 396
OLSEN Andrea#96Local 40-49 Female0:28:28 9.5 402
O'KEEFE Louise#285Local Senior Female0:28:33 9.5 414
GRIFFITHS Kylie#44Local 40-49 Female0:28:42 9.4 423
VIRTUE Rob#837Local Team0:28:45 9.4 4310
BRADEN Mick#64Local 40-49 Male0:28:47 9.4 447
BAXTER Virginia#59Local 40-49 Female0:28:50 9.4 454
PLUCK Neil#275Local Senior Male0:29:01 9.3 4611
IRWIN Alexia#262Local Senior Female0:29:27 9.2 475
PRENDERGAST Damien#276Local Senior Male0:29:35 9.1 4812
HERRINGTON Suzie#257Local 40-49 Female0:29:58 9 495
MCDONALD Kellie#233Local Senior Female0:30:05 9 506
MATTHEWS Robert#3Local 50+ Male0:30:14 8.9 514
MCINTOSH Casey#802Local Junior Team0:30:25 8.9 524
BERRY Tim#281Local Senior Male0:30:33 8.8 5313
CHANDLER Mark#288Local Senior Male0:30:39 8.8 5414
CAMERON Janic#76Local 50+ Female0:30:42 8.8 551
ALDERSON Allan#86Local 50+ Male0:30:43 8.8 565
LAMBERT Bp#269Local Senior Male0:30:47 8.8 5715
MANNING Simon#832Local Team0:31:04 8.7 5811
BEHRE Michaela#10Local Junior Female0:31:16 8.6 594
DYNON Paul#95Local 40-49 Male0:31:37 8.5 608
NIVEN Bec#823Local Team0:31:56 8.5 6112
LAMB Simon#280Local Senior Male0:32:13 8.4 6216
O'DONOHUE Mark#33Local 50+ Male0:32:47 8.2 636
JACOBS Suzie#813Local Team0:32:48 8.2 6413
MARSHALL Sarah#54Local 40-49 Female0:32:53 8.2 656
BERRY Angela#277Local Senior Female0:33:25 8.1 667
VAN DER HEYDEN Natalie#222Local Senior Female0:33:36 8 678
SCICLANA Todd#256Local Senior Male0:33:47 8 6817
O'DONOHUE Josephine#284Local Senior Female0:34:10 7.9 699
CAIN Greg#68Local 50+ Male0:34:25 7.8 707
EVANS Nigel#273Local Senior Male0:34:28 7.8 7118
BUCHANAN Kathryn#221Local Senior Female0:34:35 7.8 7210
SMART Fiona#811Local Team0:34:41 7.8 7314
BAILEY Annie#7Local 50+ Female0:35:17 7.7 742
JOHNSON Travis#234Local Senior Male0:35:25 7.6 7519
HOLLINS Jenny#25Local 40-49 Female0:35:43 7.6 767
EGAN Holly#87Local Junior Female0:35:56 7.5 775
WHELLER Laurie#53Local 50+ Male0:36:21 7.4 788
MCCULLOCH Justin#41Local 40-49 Male0:37:34 7.2 799
DALLLINGER Brian#45Local 50+ Male0:37:36 7.2 809
CHAMBERS Stephen#9Local 50+ Male0:37:42 7.2 8110
JONES Danene#247Local Senior Female0:38:38 7 8211
MCCULLOCH Melanie#243Local Senior Female0:40:37 6.6 8312